EW4757 Weather Reports


Display with metric or nautical units.
time (UTC)temp
F
wind
direction
speed
MPH
gust
MPH
rain 1hr
in
rain 24hr
in
rain mn
in
humidity
%
barometer
mb
20260506001524 78 303 2.0 7.0 0.00 0.00 0.00 30 1007.9
20260506001024 78 329 2.0 7.0 0.00 0.00 0.00 30 1007.8
20260506000524 78 299 3.0 6.0 0.00 0.00 0.00 29 1007.8
20260506000023 78 297 3.0 6.0 0.00 0.00 0.00 29 1007.8
20260505235523 78 300 3.0 8.0 0.00 0.00 0.00 28 1007.8
20260505235023 79 293 4.0 8.0 0.00 0.00 0.00 27 1007.7
20260505234523 79 308 3.0 10.0 0.00 0.00 0.00 27 1007.7
20260505234022 79 312 6.0 10.0 0.00 0.00 0.00 26 1007.6
20260505233523 79 296 5.0 10.0 0.00 0.00 0.00 26 1007.7
20260505233022 79 321 5.0 10.0 0.00 0.00 0.00 26 1007.7
20260505232522 80 314 3.0 7.0 0.00 0.00 0.00 28 1007.7
20260505232023 80 305 3.0 7.0 0.00 0.00 0.00 28 1007.6
20260505231527 80 302 3.0 8.0 0.00 0.00 0.00 28 1007.6
20260505231021 80 289 3.0 8.0 0.00 0.00 0.00 28 1007.6
20260505230521 80 291 3.0 7.0 0.00 0.00 0.00 28 1007.6
20260505230023 80 305 3.0 8.0 0.00 0.00 0.00 27 1007.7
20260505225522 80 303 5.0 8.0 0.00 0.00 0.00 27 1007.7
20260505225022 81 304 4.0 8.0 0.00 0.00 0.00 26 1007.7
20260505224527 81 316 3.0 8.0 0.00 0.00 0.00 27 1007.7
20260505224021 81 326 5.0 9.0 0.00 0.00 0.00 26 1007.6
20260505223520 81 305 5.0 9.0 0.00 0.00 0.00 26 1007.6
20260505223020 81 302 5.0 8.0 0.00 0.00 0.00 26 1007.7
20260505222519 81 307 4.0 9.0 0.00 0.00 0.00 27 1007.9
20260505222019 81 315 6.0 9.0 0.00 0.00 0.00 27 1007.8
20260505221519 81 305 2.0 8.0 0.00 0.00 0.00 28 1007.7
20260505221018 81 318 3.0 10.0 0.00 0.00 0.00 28 1007.8
20260505220518 81 307 5.0 10.0 0.00 0.00 0.00 27 1007.7
20260505220019 81 307 3.0 10.0 0.00 0.00 0.00 27 1007.6
20260505215518 82 294 5.0 10.0 0.00 0.00 0.00 27 1007.5
20260505215018 82 333 4.0 9.0 0.00 0.00 0.00 27 1007.5
20260505214518 82 314 3.0 9.0 0.00 0.00 0.00 27 1007.6
20260505214018 82 320 3.0 7.0 0.00 0.00 0.00 27 1007.4
20260505213517 82 295 4.0 11.0 0.00 0.00 0.00 27 1007.5
20260505213019 82 306 4.0 11.0 0.00 0.00 0.00 27 1007.4
20260505212520 82 299 4.0 10.0 0.00 0.00 0.00 27 1007.5
20260505212016 82 305 3.0 11.0 0.00 0.00 0.00 27 1007.5
20260505211533 82 313 6.0 11.0 0.00 0.00 0.00 26 1007.5
20260505211016 82 305 6.0 11.0 0.00 0.00 0.00 27 1007.5
20260505210516 83 316 4.0 9.0 0.00 0.00 0.00 27 1007.5
20260505210016 82 309 4.0 9.0 0.00 0.00 0.00 26 1007.6
20260505205517 82 295 5.0 10.0 0.00 0.00 0.00 26 1007.5
20260505205015 82 313 5.0 10.0 0.00 0.00 0.00 26 1007.5
20260505204514 83 305 4.0 10.0 0.00 0.00 0.00 27 1007.5
20260505204014 83 345 3.0 9.0 0.00 0.00 0.00 26 1007.5
20260505203514 83 296 5.0 8.0 0.00 0.00 0.00 26 1007.4
20260505203014 83 289 4.0 11.0 0.00 0.00 0.00 25 1007.5
20260505202514 83 329 6.0 11.0 0.00 0.00 0.00 25 1007.5
20260505202013 83 299 4.0 9.0 0.00 0.00 0.00 24 1007.4
20260505201512 83 314 4.0 12.0 0.00 0.00 0.00 25 1007.5
20260505201015 83 322 5.0 11.0 0.00 0.00 0.00 24 1007.5
20260505200512 84 302 5.0 10.0 0.00 0.00 0.00 24 1007.5
20260505200011 84 316 4.0 12.0 0.00 0.00 0.00 24 1007.6
20260505195510 84 302 8.0 12.0 0.00 0.00 0.00 24 1007.6
20260505195009 83 300 6.0 13.0 0.00 0.00 0.00 25 1007.6
20260505194509 84 297 7.0 13.0 0.00 0.00 0.00 25 1007.7
20260505194010 84 312 5.0 10.0 0.00 0.00 0.00 25 1007.8
20260505193508 83 273 5.0 12.0 0.00 0.00 0.00 25 1007.8
20260505193007 84 326 5.0 9.0 0.00 0.00 0.00 26 1007.9
20260505192506 84 298 4.0 8.0 0.00 0.00 0.00 26 1007.9
20260505192005 85 317 4.0 7.0 0.00 0.00 0.00 26 1007.9
20260505191504 84 311 3.0 10.0 0.00 0.00 0.00 27 1008.0
20260505191002 83 297 3.0 10.0 0.00 0.00 0.00 28 1008.2
20260505190502 84 305 4.0 8.0 0.00 0.00 0.00 28 1008.2
20260505190103 83 314 3.0 9.0 0.00 0.00 0.00 28 1008.4
20260505185600 84 286 4.0 9.0 0.00 0.00 0.00 28 1008.4
20260505185059 84 315 3.0 10.0 0.00 0.00 0.00 29 1008.4
20260505184559 84 295 5.0 10.0 0.00 0.00 0.00 28 1008.5
20260505184057 83 300 2.0 9.0 0.00 0.00 0.00 30 1008.6
20260505183556 83 318 4.0 11.0 0.00 0.00 0.00 30 1008.6
20260505183055 83 288 3.0 11.0 0.00 0.00 0.00 29 1008.7
20260505182557 83 308 3.0 10.0 0.00 0.00 0.00 31 1008.6
20260505182056 83 302 3.0 10.0 0.00 0.00 0.00 31 1008.7
20260505181553 83 290 5.0 9.0 0.00 0.00 0.00 30 1008.8
20260505181052 83 292 3.0 6.0 0.00 0.00 0.00 31 1009.0
20260505180551 84 319 3.0 7.0 0.00 0.00 0.00 30 1009.1
20260505180055 83 290 1.0 7.0 0.00 0.00 0.00 33 1009.1
20260505175549 83 285 2.0 8.0 0.00 0.00 0.00 31 1009.2
20260505175050 82 293 4.0 8.0 0.00 0.00 0.00 31 1009.2
20260505174548 83 298 4.0 8.0 0.00 0.00 0.00 31 1009.4
20260505174047 83 321 4.0 8.0 0.00 0.00 0.00 30 1009.4
20260505173547 83 305 2.0 6.0 0.00 0.00 0.00 31 1009.4
20260505173046 83 235 1.0 8.0 0.00 0.00 0.00 32 1009.3
20260505172549 82 60 1.0 8.0 0.00 0.00 0.00 33 1009.4
20260505172045 82 305 4.0 7.0 0.00 0.00 0.00 31 1009.5
20260505171545 82 305 2.0 5.0 0.00 0.00 0.00 32 1009.6
20260505171045 82 300 2.0 8.0 0.00 0.00 0.00 31 1009.6
20260505170544 82 301 3.0 8.0 0.00 0.00 0.00 31 1009.7
20260505170044 82 312 1.0 6.0 0.00 0.00 0.00 32 1009.8
20260505165545 82 327 0.0 6.0 0.00 0.00 0.00 33 1009.9
20260505165042 81 311 2.0 6.0 0.00 0.00 0.00 32 1009.9
20260505164641 81 156 1.0 6.0 0.00 0.00 0.00 33 1010.0
20260505164043 81 290 3.0 11.0 0.00 0.00 0.00 32 1010.1
20260505163540 81 217 1.0 8.0 0.00 0.00 0.00 34 1010.1
20260505163040 80 312 1.0 8.0 0.00 0.00 0.00 33 1010.2
20260505162543 80 302 2.0 5.0 0.00 0.00 0.00 33 1010.4
20260505162038 80 303 2.0 8.0 0.00 0.00 0.00 33 1010.4
20260505161540 80 307 1.0 8.0 0.00 0.00 0.00 34 1010.5
20260505161038 80 300 2.0 8.0 0.00 0.00 0.00 34 1010.6
20260505160539 80 286 2.0 7.0 0.00 0.00 0.00 34 1010.6
20260505153038 79 300 1.0 4.0 0.00 0.00 0.00 39 1010.9
20260505152533 78 315 0.0 4.0 0.00 0.00 0.00 38 1010.8
20260505152033 78 294 1.0 5.0 0.00 0.00 0.00 40 1010.8
20260505151539 78 291 2.0 5.0 0.00 0.00 0.00 38 1010.8
20260505151031 78 304 1.0 5.0 0.00 0.00 0.00 40 1010.8
20260505150530 78 315 1.0 4.0 0.00 0.00 0.00 39 1010.8
20260505140521 73 296 1.0 3.0 0.00 0.00 0.00 46 1011.0
20260505125002 67 301 0.0 4.0 0.00 0.00 0.00 54 1011.3
20260505124603 67 309 1.0 4.0 0.00 0.00 0.00 54 1011.4
20260505124102 67 296 1.0 3.0 0.00 0.00 0.00 54 1011.4
20260505123557 66 296 0.0 2.0 0.00 0.00 0.00 55 1011.4
20260505123058 65 301 0.0 4.0 0.00 0.00 0.00 55 1011.4
20260505122557 65 308 1.0 5.0 0.00 0.00 0.00 55 1011.4
20260505122057 64 297 2.0 5.0 0.00 0.00 0.00 56 1011.4
20260505121600 64 294 1.0 4.0 0.00 0.00 0.00 56 1011.4
20260505121057 64 302 1.0 4.0 0.00 0.00 0.00 57 1011.4
20260505120557 64 304 2.0 4.0 0.00 0.00 0.00 56 1011.3
20260505120111 63 307 1.0 4.0 0.00 0.00 0.00 57 1011.3
20260505115555 63 319 2.0 5.0 0.00 0.00 0.00 57 1011.3
20260505115055 63 300 2.0 5.0 0.00 0.00 0.00 58 1011.1
20260505114557 62 307 2.0 5.0 0.00 0.00 0.00 58 1011.1
20260505114054 62 303 3.0 5.0 0.00 0.00 0.00 58 1011.1
20260505113557 62 311 1.0 6.0 0.00 0.00 0.00 59 1011.0
20260505113101 61 308 2.0 6.0 0.00 0.00 0.00 59 1011.1
20260505112551 61 297 2.0 6.0 0.00 0.00 0.00 60 1011.0
20260505112052 61 312 3.0 6.0 0.00 0.00 0.00 59 1011.0
20260505111552 61 293 2.0 6.0 0.00 0.00 0.00 60 1011.0
20260505111051 61 297 2.0 6.0 0.00 0.00 0.00 60 1010.9
20260505110550 61 305 2.0 5.0 0.00 0.00 0.00 60 1010.8
20260505102043 60 290 3.0 6.0 0.00 0.00 0.00 61 1010.2
20260505101546 60 311 2.0 5.0 0.00 0.00 0.00 61 1010.2
20260505101043 60 300 2.0 5.0 0.00 0.00 0.00 62 1010.2
20260505100543 60 313 2.0 5.0 0.00 0.00 0.00 62 1010.2
20260505100043 60 293 1.0 5.0 0.00 0.00 0.00 62 1010.2
20260505095542 60 303 2.0 5.0 0.00 0.00 0.00 62 1010.2
20260505095043 60 307 2.0 6.0 0.00 0.00 0.00 62 1010.2
20260505094540 60 299 2.0 6.0 0.00 0.00 0.00 62 1010.1
20260505094040 60 300 3.0 6.0 0.00 0.00 0.00 62 1010.1
20260505093540 60 293 2.0 6.0 0.00 0.00 0.00 62 1010.0
20260505093051 60 308 3.0 6.0 0.00 0.00 0.00 62 1010.0
20260505092539 60 312 2.0 5.0 0.00 0.00 0.00 62 1010.0
20260505092044 60 298 2.0 5.0 0.00 0.00 0.00 62 1010.0
20260505091539 61 310 2.0 5.0 0.00 0.00 0.00 62 1009.9
20260505091038 61 299 2.0 4.0 0.00 0.00 0.00 63 1010.0
20260505090540 60 284 2.0 4.0 0.00 0.00 0.00 63 1010.0
20260505090038 60 304 1.0 4.0 0.00 0.00 0.00 63 1010.0
20260505085542 60 313 2.0 4.0 0.00 0.00 0.00 63 1010.0
20260505085040 60 321 1.0 4.0 0.00 0.00 0.00 64 1010.0
20260505084537 60 308 1.0 3.0 0.00 0.00 0.00 64 1010.1
20260505084035 60 302 0.0 3.0 0.00 0.00 0.00 64 1010.0
20260505083538 61 306 0.0 4.0 0.00 0.00 0.00 64 1009.9
20260505083040 61 308 1.0 4.0 0.00 0.00 0.00 64 1009.9
20260505082536 61 309 2.0 4.0 0.00 0.00 0.00 63 1009.9
20260505082035 61 295 2.0 4.0 0.00 0.00 0.00 63 1009.9
20260505081535 61 300 2.0 4.0 0.00 0.00 0.00 63 1009.9
20260505081035 61 301 2.0 4.0 0.00 0.00 0.00 64 1009.9
20260505080533 61 295 1.0 4.0 0.00 0.00 0.00 64 1009.9
20260505080035 61 305 1.0 4.0 0.00 0.00 0.00 64 1009.9
20260505075533 61 297 1.0 3.0 0.00 0.00 0.00 64 1009.9
20260505075034 61 306 1.0 3.0 0.00 0.00 0.00 64 1009.8
20260505074534 62 316 1.0 3.0 0.00 0.00 0.00 64 1009.7
20260505074032 62 310 1.0 4.0 0.00 0.00 0.00 63 1009.7
20260505073532 62 304 1.0 4.0 0.00 0.00 0.00 63 1009.6
20260505073133 62 333 1.0 4.0 0.00 0.00 0.00 63 1009.5
20260505072531 62 300 1.0 4.0 0.00 0.00 0.00 63 1009.5
20260505072031 62 294 2.0 6.0 0.00 0.00 0.00 63 1009.6
20260505071533 62 301 2.0 6.0 0.00 0.00 0.00 63 1009.6
20260505071031 62 306 1.0 3.0 0.00 0.00 0.00 63 1009.6
20260505070531 62 297 0.0 2.0 0.00 0.00 0.00 63 1009.6
20260505070034 62 315 0.0 3.0 0.00 0.00 0.00 63 1009.6
20260505065531 62 301 0.0 4.0 0.00 0.00 0.00 63 1009.6
20260505065030 63 307 0.0 4.0 0.00 0.00 0.00 63 1009.6
20260505064529 63 304 0.0 4.0 0.00 0.00 0.00 63 1009.6
20260505064030 63 286 1.0 4.0 0.00 0.00 0.00 62 1009.6
20260505063529 62 298 0.0 3.0 0.00 0.00 0.00 63 1009.6
20260505063030 62 316 0.0 3.0 0.00 0.00 0.00 64 1009.7
20260505062530 62 300 1.0 3.0 0.00 0.00 0.00 64 1009.6
20260505062029 62 287 0.0 2.0 0.00 0.00 0.00 65 1009.6
20260505061538 62 311 0.0 2.0 0.00 0.00 0.00 64 1009.6
20260505061032 62 306 0.0 2.0 0.00 0.00 0.00 65 1009.6
20260505060529 61 309 0.0 2.0 0.00 0.00 0.00 66 1009.6
20260505060029 61 312 0.0 1.0 0.00 0.00 0.00 68 1009.7
20260505055529 60 294 0.0 1.0 0.00 0.00 0.00 68 1009.6
20260505055029 60 306 0.0 1.0 0.00 0.00 0.00 68 1009.5
20260505054541 60 306 0.0 1.0 0.00 0.00 0.00 69 1009.5
20260505054027 60 284 0.0 0.0 0.00 0.00 0.00 69 1009.5
20260505053527 60 284 0.0 0.0 0.00 0.00 0.00 68 1009.6
20260505053027 60 284 0.0 0.0 0.00 0.00 0.00 68 1009.5
20260505052526 60 284 0.0 0.0 0.00 0.00 0.00 68 1009.4
20260505052025 61 284 0.0 0.0 0.00 0.00 0.00 67 1009.5
20260505051523 61 284 0.0 0.0 0.00 0.00 0.00 66 1009.6
20260505051022 61 284 0.0 1.0 0.00 0.00 0.00 66 1009.6
20260505050521 62 284 0.0 1.0 0.00 0.00 0.00 65 1009.6
20260505041508 65 304 0.0 3.0 0.00 0.00 0.00 58 1009.9
20260505041008 66 302 0.0 4.0 0.00 0.00 0.00 57 1009.7
20260505040507 66 289 1.0 4.0 0.00 0.00 0.00 57 1009.7
20260505040016 66 295 1.0 4.0 0.00 0.00 0.00 56 1009.8
20260505035511 66 286 2.0 4.0 0.00 0.00 0.00 56 1009.8
20260505035005 66 319 1.0 4.0 0.00 0.00 0.00 56 1009.7
20260505034505 66 304 1.0 4.0 0.00 0.00 0.00 55 1009.7
20260505034005 66 314 1.0 4.0 0.00 0.00 0.00 55 1009.6
20260505033505 67 302 1.0 4.0 0.00 0.00 0.00 55 1009.7
20260505033011 67 305 1.0 4.0 0.00 0.00 0.00 54 1009.7
20260505032507 67 302 2.0 4.0 0.00 0.00 0.00 54 1009.7
20260505032005 67 302 1.0 3.0 0.00 0.00 0.00 54 1009.7
20260505031504 67 303 1.0 3.0 0.00 0.00 0.00 53 1009.7
20260505031004 67 300 0.0 3.0 0.00 0.00 0.00 52 1009.7
20260505030504 68 309 1.0 3.0 0.00 0.00 0.00 52 1009.7
20260505030010 68 293 0.0 3.0 0.00 0.00 0.00 52 1009.6
20260505025503 68 294 1.0 3.0 0.00 0.00 0.00 51 1009.7
20260505025002 68 305 0.0 3.0 0.00 0.00 0.00 51 1009.7
20260505024502 68 307 0.0 3.0 0.00 0.00 0.00 50 1009.6
20260505024002 68 305 0.0 3.0 0.00 0.00 0.00 50 1009.7
20260505023502 68 290 0.0 4.0 0.00 0.00 0.00 49 1009.6
20260505023002 69 283 0.0 4.0 0.00 0.00 0.00 48 1009.6
20260505022502 69 306 1.0 4.0 0.00 0.00 0.00 47 1009.6
20260505022001 69 300 1.0 3.0 0.00 0.00 0.00 47 1009.6
20260505021501 69 298 0.0 5.0 0.00 0.00 0.00 46 1009.7
20260505021001 70 320 2.0 5.0 0.00 0.00 0.00 45 1009.6
20260505020502 70 295 2.0 5.0 0.00 0.00 0.00 45 1009.6
20260505020100 70 297 2.0 6.0 0.00 0.00 0.00 44 1009.6
20260505020003 70 281 2.0 6.0 0.00 0.00 0.00 44 1009.6
20260505015501 70 317 2.0 6.0 0.00 0.00 0.00 44 1009.5
20260505015101 70 313 1.0 3.0 0.00 0.00 0.00 44 1009.4
20260505014606 70 300 0.0 3.0 0.00 0.00 0.00 44 1009.2
20260505014500 71 314 0.0 5.0 0.00 0.00 0.00 44 1009.2
20260505014100 71 305 0.0 5.0 0.00 0.00 0.00 44 1009.1
20260505013559 71 302 2.0 5.0 0.00 0.00 0.00 43 1009.2
20260505013103 71 315 2.0 7.0 0.00 0.00 0.00 43 1009.2
20260505012559 71 281 2.0 7.0 0.00 0.00 0.00 42 1009.2
20260505012059 71 307 3.0 6.0 0.00 0.00 0.00 42 1009.1
20260505011618 71 295 3.0 6.0 0.00 0.00 0.00 42 1009.0
20260505011101 71 299 2.0 5.0 0.00 0.00 0.00 42 1008.9
20260505010558 71 313 2.0 4.0 0.00 0.00 0.00 42 1008.8
20260505010107 71 310 2.0 5.0 0.00 0.00 0.00 42 1008.8
20260505005558 71 298 2.0 5.0 0.00 0.00 0.00 42 1008.7
20260505005101 72 333 2.0 4.0 0.00 0.00 0.00 42 1008.6
20260505004600 72 301 0.0 6.0 0.00 0.00 0.00 42 1008.7
20260505004058 72 312 1.0 6.0 0.00 0.00 0.00 41 1008.9
20260505003557 72 286 3.0 6.0 0.00 0.00 0.00 41 1008.7
20260505003057 72 298 1.0 6.0 0.00 0.00 0.00 41 1008.7
20260505002557 72 313 2.0 6.0 0.00 0.00 0.00 40 1008.7
20260505002059 72 305 2.0 6.0 0.00 0.00 0.00 40 1008.7